Location: Bermeries
(50.2863°N, 3.7551°E)
Time: 11:30:09
(UTC+00:00)

NOSS 3-4 (C) - Pass Details

Date: 23 May 2024
Orbit: 814 x 1397 km, 63.4° (Epoch: 04 June)

Event Time Altitude Azimuth Distance (km) Brightness Sun altitude
Rises 00:33:01 0° 315° (NW) 3,760 7.0 -18.2°
Reaches altitude 10° 00:35:32 10° 311° (NW) 2,885 6.3 -18.1°
Maximum altitude 00:42:11 53° 237° (WSW) 1,410 4.0 -17.8°
Enters shadow 00:47:18 21° 170° (S) 2,467 5.1 -17.6°
